This is the latest recevied weather packets stored in our database for station/object W8RSN-13. If no packets are shown the sender has not sent any weather packets the latest 10 day(s).
| Time | Temp. | Humidity | Pressure | Rain* | Wind** | Luminosity | Snow |
|---|---|---|---|---|---|---|---|
| 1787924372 | 23.89° C | 63% | 1014.3 hPa | - | - | - | - |
| 1787924072 | 24.44° C | 64% | 1014.3 hPa | - | - | - | - |
| 1787923771 | 23.89° C | 65% | 1014.3 hPa | - | - | - | - |
| 1787923470 | 23.89° C | 64% | 1014.2 hPa | - | - | - | - |
| 1787923169 | 24.44° C | 65% | 1014 hPa | - | - | - | - |
| 1787922868 | 24.44° C | 64% | 1013.9 hPa | - | - | - | - |
| 1787922567 | 24.44° C | 64% | 1013.8 hPa | - | - | - | - |
| 1787922266 | 24.44° C | 62% | 1013.7 hPa | - | - | - | - |
| 1787921965 | 24.44° C | 62% | 1013.8 hPa | - | - | - | - |
| 1787921664 | 23.89° C | 62% | 1013.7 hPa | - | - | - | - |
| 1787921364 | 23.89° C | 63% | 1013.7 hPa | - | - | - | - |
| 1787921063 | 24.44° C | 63% | 1013.8 hPa | - | - | - | - |
| 1787920762 | 24.44° C | 63% | 1013.7 hPa | - | - | - | - |
| 1787920461 | 24.44° C | 64% | 1013.4 hPa | - | - | - | - |
| 1787920160 | 24.44° C | 63% | 1013.6 hPa | - | - | - | - |
| 1787919859 | 24.44° C | 63% | 1013.5 hPa | - | - | - | - |
| 1787919558 | 23.89° C | 65% | 1013.5 hPa | - | - | - | - |
| 1787919257 | 23.89° C | 65% | 1013.3 hPa | - | - | - | - |
| 1787918956 | 23.89° C | 66% | 1013.5 hPa | - | - | - | - |
| 1787918656 | 24.44° C | 66% | 1013.4 hPa | - | - | - | - |
| 1787918374 | 24.44° C | 64% | 1013.3 hPa | - | - | - | - |
| 1787918074 | 24.44° C | 66% | 1013.6 hPa | - | - | - | - |
| 1787917773 | 23.89° C | 63% | 1013.4 hPa | - | - | - | - |
| 1787917472 | 24.44° C | 67% | 1013.2 hPa | - | - | - | - |
| 1787917171 | 24.44° C | 68% | 1013.2 hPa | - | - | - | - |
* Rain since midnight (hover to see other rain measurements)
** Current wind speed in m/s (hover to see current wind gust speed)